This is the latest recevied weather packets stored in our database for station/object WI0K. If no packets are shown the sender has not sent any weather packets the latest 10 day(s).
| Time | Temp. | Humidity | Pressure | Rain* | Wind** | Luminosity | Snow |
|---|---|---|---|---|---|---|---|
| 1778178300 | 17.78° C | 31% | 1015.8 hPa | 0 mm | - | 717 W/m² | - |
| 1778178000 | 17.78° C | 33% | 1015.8 hPa | 0 mm | - | 821 W/m² | - |
| 1778177699 | 17.78° C | 33% | 1015.9 hPa | 0 mm | - | 776 W/m² | - |
| 1778177399 | 17.78° C | 34% | 1015.9 hPa | 0 mm | - | 999 W/m² | - |
| 1778177098 | 17.78° C | 34% | 1015.9 hPa | 0 mm | - | 999 W/m² | - |
| 1778176797 | 17.22° C | 34% | 1016.1 hPa | 0 mm | - | 999 W/m² | - |
| 1778176497 | 17.22° C | 34% | 1016.1 hPa | 0 mm | - | 703 W/m² | - |
| 1778176196 | 17.22° C | 35% | 1016.1 hPa | 0 mm | - | 717 W/m² | - |
| 1778175896 | 17.22° C | 34% | 1016.1 hPa | 0 mm | - | 676 W/m² | - |
| 1778175595 | 16.67° C | 35% | 1016.1 hPa | 0 mm | - | 755 W/m² | - |
| 1778175294 | 16.67° C | 35% | 1016.2 hPa | 0 mm | - | 932 W/m² | - |
| 1778174994 | 17.22° C | 34% | 1016.2 hPa | 0 mm | - | 901 W/m² | - |
| 1778174693 | 16.67° C | 34% | 1016.3 hPa | 0 mm | - | 913 W/m² | - |
| 1778174392 | 16.11° C | 35% | 1016.3 hPa | 0 mm | - | 913 W/m² | - |
| 1778174092 | 16.11° C | 35% | 1016.3 hPa | 0 mm | - | 725 W/m² | - |
| 1778173791 | 15.56° C | 35% | 1016.4 hPa | 0 mm | - | 696 W/m² | - |
| 1778173490 | 15.56° C | 39% | 1016.4 hPa | 0 mm | - | 711 W/m² | - |
| 1778173190 | 15.56° C | 36% | 1016.5 hPa | 0 mm | - | 503 W/m² | - |
| 1778172889 | 15.56° C | 37% | 1016.5 hPa | 0 mm | - | 535 W/m² | - |
| 1778172588 | 15.56° C | 39% | 1016.5 hPa | 0 mm | - | 570 W/m² | - |
| 1778172288 | 15.56° C | 37% | 1016.5 hPa | 0 mm | - | 870 W/m² | - |
| 1778171987 | 15.56° C | 37% | 1016.6 hPa | 0 mm | - | 625 W/m² | - |
| 1778171686 | 15.56° C | 36% | 1016.6 hPa | 0 mm | - | 694 W/m² | - |
| 1778171386 | 15° C | 39% | 1016.6 hPa | 0 mm | - | 999 W/m² | - |
| 1778171085 | 15° C | 39% | 1016.5 hPa | 0 mm | - | 866 W/m² | - |
* Rain latest hour (hover to see other rain measurements)
** Current wind speed in m/s (hover to see current wind gust speed)